Torna al catalogo

ZY-1 02E

AttivoScienzaSSO
NORAD 50465·PAYLOAD·🇨🇳 China

Lanciato Dec 26, 2021 da Taiyuan Satellite Launch Center

Loading…

Prossimi Passaggi (prossime 24 ore)

TLE

AggiornatoSource: Space-Track

Epoca: Sep 14, 2026, 15:38 UTC

1 50465U 21131A   26257.65192161  .00000036  00000-0  27435-4 0  9995
2 50465  98.4375 332.8125 0001278 136.7981 223.3305 14.35396424247254

Traccia ZY-1 02E in tempo reale con AllMySat

Download on the App Store